Sea Thames — V2BV1 — position and weather

sailwx.info

Track history (hours):
 
Tides and Currents Weather Stations Pressure Air Temp Water Temp Dewpoint Dewpoint Depression Visibility Wind Speed Wind Dir Waves Ship Positions

Sea Thames

Last reported at 2014-Oct-24 21:33 UTC. Time now 2014-Oct-25 03:43 UTC.
Position N 50°37' E 000°21'.

Length 87 m; draft 3.8 m.

Type: Cargo ship. MMSI: 304933000.

Date/timePositionNaut miles runAvg speedWind from/ knotsBaromVisibWave heightAir tempDewpointWater temp
2014-Oct-24 21:33N 50°37' E 000°21'6 5.5
2014-Oct-24 20:33N 50°38' E 000°29'6 5.9
2014-Oct-24 19:33N 50°40' E 000°38'7 6.8
2014-Oct-24 18:34N 50°44' E 000°46'18 8.0
2014-Oct-24 16:18N 50°55' E 001°09'6 8.2
2014-Oct-24 15:32N 50°59' E 001°17'7 7.2
2014-Oct-24 14:34N 51°04' E 001°25'6 5.6
2014-Oct-24 13:34N 51°07' E 001°33'5 4.7
2014-Oct-24 12:33N 51°10' E 001°39'5 5.1
2014-Oct-24 11:34N 51°13' E 001°45'7 6.6
2014-Oct-24 10:33N 51°19' E 001°49'9 9.2
2014-Oct-24 09:33N 51°27' E 001°57'70 7.0
2014-Oct-23 23:32N 52°03' E 003°34'7 6.8
2014-Oct-23 22:33N 52°03' E 003°45'8 8.1
2014-Oct-23 21:33N 52°02' E 003°58'10 9.6
2014-Oct-23 20:34N 51°57' E 004°11'9 8.8
2014-Oct-23 19:34N 51°54' E 004°24'3 2.8
2014-Oct-23 18:28N 51°54' E 004°29'0 0.0
2014-Oct-23 17:32N 51°54' E 004°29'4 4.4
2014-Oct-23 16:33N 51°54' E 004°22'1 0.6
2014-Oct-23 15:33N 51°54' E 004°21'0 0.0
2014-Oct-23 14:31N 51°54' E 004°21'0 0.0
2014-Oct-23 13:28N 51°54' E 004°21'0 0.0
2014-Oct-23 12:33N 51°54' E 004°21'0 0.0
2014-Oct-23 11:34N 51°54' E 004°21'0 0.0
2014-Oct-23 10:33N 51°54' E 004°21'0 0.0
2014-Oct-23 09:34N 51°54' E 004°21'0 0.0
2014-Oct-23 08:34N 51°54' E 004°21'0 0.0
2014-Oct-23 07:33N 51°54' E 004°21'2 2.1
2014-Oct-23 06:33N 51°54' E 004°18'6 5.9
2014-Oct-23 05:33N 51°57' E 004°10'6 6.1
2014-Oct-23 04:33N 51°60' E 004°01'10 9.4
2014-Oct-23 03:32N 51°59' E 003°46'84 9.2
2014-Oct-22 18:27N 52°54' E 002°00'1010.8
2014-Oct-22 17:33N 52°58' E 001°46'1010.0
2014-Oct-22 16:33N 53°03' E 001°32'40 7.9
2014-Oct-22 11:29N 53°27' E 000°39'6 5.9
2014-Oct-22 10:33N 53°30' E 000°30'8 8.3
2014-Oct-22 09:33N 53°32' E 000°17'1110.7
2014-Oct-22 08:33N 53°35' W 000°00'1212.3
2014-Oct-22 07:33N 53°43' W 000°16'1110.9
2014-Oct-22 06:34N 53°42' W 000°34'  
2014-Oct-19 15:24N 53°42' W 000°44'4 4.3
2014-Oct-19 14:32N 53°43' W 000°38'8 8.4
2014-Oct-19 13:34N 53°42' W 000°24'8 8.5
2014-Oct-19 12:34N 53°39' W 000°11'1110.6
2014-Oct-19 11:34N 53°34' E 000°05'7 6.6
2014-Oct-19 10:29N 53°33' E 000°17'5 4.9
2014-Oct-19 09:27N 53°33' E 000°26'40 6.3
2014-Oct-19 03:06N 53°10' E 001°21'4 7.2
2014-Oct-19 02:33N 53°07' E 001°26'7 7.1
2014-Oct-19 01:33N 53°03' E 001°36'7 6.7
2014-Oct-19 00:33N 53°00' E 001°46'96 7.2
2014-Oct-18 11:09N 51°42' E 003°17'710.1
2014-Oct-18 10:27N 51°36' E 003°23'910.3
2014-Oct-18 09:33N 51°28' E 003°31'8 8.0
2014-Oct-18 08:34N 51°25' E 003°42'7 7.3
2014-Oct-18 07:33N 51°21' E 003°52'7 7.1
2014-Oct-18 06:34N 51°26' E 004°00'7 6.6
2014-Oct-18 05:33N 51°23' E 004°09'7 6.9
2014-Oct-18 04:33N 51°18' E 004°17'3 2.7
2014-Oct-18 03:33N 51°16' E 004°20'3 2.5
2014-Oct-18 02:33N 51°16' E 004°24'2 2.3
2014-Oct-18 01:33N 51°14' E 004°27'4 3.1
2014-Oct-18 00:24N 51°13' E 004°33'  
2014-Oct-15 00:33N 51°14' E 004°28'2 2.2
2014-Oct-14 23:31N 51°15' E 004°25'0 0.0
2014-Oct-14 22:31N 51°15' E 004°25'  
Track history (hours):
 
Tides and Currents Weather Stations Pressure Air Temp Water Temp Dewpoint Dewpoint Depression Visibility Wind Speed Wind Dir Waves Ship Positions

Sea Thames

Last reported at 2014-Oct-24 21:33 UTC. Time now 2014-Oct-25 03:43 UTC.
Position N 50°37' E 000°21'.

Length 87 m; draft 3.8 m.

Type: Cargo ship. MMSI: 304933000.

Date/timePositionNaut miles runAvg speedWind from/ knotsBaromVisibWave heightAir tempDewpointWater temp
2014-Oct-24 21:33N 50°37' E 000°21'6 5.5
2014-Oct-24 20:33N 50°38' E 000°29'6 5.9
2014-Oct-24 19:33N 50°40' E 000°38'7 6.8
2014-Oct-24 18:34N 50°44' E 000°46'18 8.0
2014-Oct-24 16:18N 50°55' E 001°09'6 8.2
2014-Oct-24 15:32N 50°59' E 001°17'7 7.2
2014-Oct-24 14:34N 51°04' E 001°25'6 5.6
2014-Oct-24 13:34N 51°07' E 001°33'5 4.7
2014-Oct-24 12:33N 51°10' E 001°39'5 5.1
2014-Oct-24 11:34N 51°13' E 001°45'7 6.6
2014-Oct-24 10:33N 51°19' E 001°49'9 9.2
2014-Oct-24 09:33N 51°27' E 001°57'70 7.0
2014-Oct-23 23:32N 52°03' E 003°34'7 6.8
2014-Oct-23 22:33N 52°03' E 003°45'8 8.1
2014-Oct-23 21:33N 52°02' E 003°58'10 9.6
2014-Oct-23 20:34N 51°57' E 004°11'9 8.8
2014-Oct-23 19:34N 51°54' E 004°24'3 2.8
2014-Oct-23 18:28N 51°54' E 004°29'0 0.0
2014-Oct-23 17:32N 51°54' E 004°29'4 4.4
2014-Oct-23 16:33N 51°54' E 004°22'1 0.6
2014-Oct-23 15:33N 51°54' E 004°21'0 0.0
2014-Oct-23 14:31N 51°54' E 004°21'0 0.0
2014-Oct-23 13:28N 51°54' E 004°21'0 0.0
2014-Oct-23 12:33N 51°54' E 004°21'0 0.0
2014-Oct-23 11:34N 51°54' E 004°21'0 0.0
2014-Oct-23 10:33N 51°54' E 004°21'0 0.0
2014-Oct-23 09:34N 51°54' E 004°21'0 0.0
2014-Oct-23 08:34N 51°54' E 004°21'0 0.0
2014-Oct-23 07:33N 51°54' E 004°21'2 2.1
2014-Oct-23 06:33N 51°54' E 004°18'6 5.9
2014-Oct-23 05:33N 51°57' E 004°10'6 6.1
2014-Oct-23 04:33N 51°60' E 004°01'10 9.4
2014-Oct-23 03:32N 51°59' E 003°46'84 9.2
2014-Oct-22 18:27N 52°54' E 002°00'1010.8
2014-Oct-22 17:33N 52°58' E 001°46'1010.0
2014-Oct-22 16:33N 53°03' E 001°32'40 7.9
2014-Oct-22 11:29N 53°27' E 000°39'6 5.9
2014-Oct-22 10:33N 53°30' E 000°30'8 8.3
2014-Oct-22 09:33N 53°32' E 000°17'1110.7
2014-Oct-22 08:33N 53°35' W 000°00'1212.3
2014-Oct-22 07:33N 53°43' W 000°16'1110.9
2014-Oct-22 06:34N 53°42' W 000°34'  
2014-Oct-19 15:24N 53°42' W 000°44'4 4.3
2014-Oct-19 14:32N 53°43' W 000°38'8 8.4
2014-Oct-19 13:34N 53°42' W 000°24'8 8.5
2014-Oct-19 12:34N 53°39' W 000°11'1110.6
2014-Oct-19 11:34N 53°34' E 000°05'7 6.6
2014-Oct-19 10:29N 53°33' E 000°17'5 4.9
2014-Oct-19 09:27N 53°33' E 000°26'40 6.3
2014-Oct-19 03:06N 53°10' E 001°21'4 7.2
2014-Oct-19 02:33N 53°07' E 001°26'7 7.1
2014-Oct-19 01:33N 53°03' E 001°36'7 6.7
2014-Oct-19 00:33N 53°00' E 001°46'96 7.2
2014-Oct-18 11:09N 51°42' E 003°17'710.1
2014-Oct-18 10:27N 51°36' E 003°23'910.3
2014-Oct-18 09:33N 51°28' E 003°31'8 8.0
2014-Oct-18 08:34N 51°25' E 003°42'7 7.3
2014-Oct-18 07:33N 51°21' E 003°52'7 7.1
2014-Oct-18 06:34N 51°26' E 004°00'7 6.6
2014-Oct-18 05:33N 51°23' E 004°09'7 6.9
2014-Oct-18 04:33N 51°18' E 004°17'3 2.7
2014-Oct-18 03:33N 51°16' E 004°20'3 2.5
2014-Oct-18 02:33N 51°16' E 004°24'2 2.3
2014-Oct-18 01:33N 51°14' E 004°27'4 3.1
2014-Oct-18 00:24N 51°13' E 004°33'  
2014-Oct-15 00:33N 51°14' E 004°28'2 2.2
2014-Oct-14 23:31N 51°15' E 004°25'0 0.0
2014-Oct-14 22:31N 51°15' E 004°25'  

Dump ship's entire track history